Time,TemperatureF,DewpointF,PressureIn,WindDirection,WindDirectionDegrees,WindSpeedMPH,WindSpeedGustMPH,Humidity,HourlyPrecipIn,Conditions,Clouds,dailyrainin,SoftwareType,DateUTC
2013-07-22 00:02:00,62.0,61.0,29.88,SSE,155,0.0,2.0,96,0.00,,,1.20,,2013-07-22 05:02:00,
2013-07-22 00:11:00,63.0,62.0,29.88,SSE,155,0.0,1.0,96,0.00,,,1.20,,2013-07-22 05:11:00,
2013-07-22 00:22:00,63.0,62.0,29.88,SSE,165,2.0,5.0,96,0.00,,,1.20,,2013-07-22 05:22:00,
2013-07-22 00:32:00,63.0,62.0,29.87,SSE,153,1.0,5.0,96,0.00,,,1.20,,2013-07-22 05:32:00,
2013-07-22 00:43:00,62.0,61.0,29.87,East,92,1.0,5.0,96,0.00,,,1.20,,2013-07-22 05:43:00,
2013-07-22 00:52:00,62.0,61.0,29.86,SSE,161,1.0,4.0,96,0.00,,,1.20,,2013-07-22 05:52:00,
2013-07-22 01:01:00,62.0,61.0,29.86,SSE,153,1.0,4.0,96,0.00,,,1.20,,2013-07-22 06:01:00,
2013-07-22 01:22:00,62.0,61.0,29.86,SSE,161,1.0,5.0,96,0.00,,,1.20,,2013-07-22 06:22:00,
2013-07-22 01:33:00,62.0,61.0,29.85,SSE,165,1.0,6.0,97,0.00,,,1.20,,2013-07-22 06:33:00,
2013-07-22 01:43:00,62.0,61.0,29.85,South,184,0.0,1.0,97,0.00,,,1.20,,2013-07-22 06:43:00,
2013-07-22 01:52:00,62.0,61.0,29.84,SE,143,1.0,3.0,97,0.00,,,1.20,,2013-07-22 06:52:00,
2013-07-22 02:01:00,62.0,61.0,29.84,SSE,153,0.0,4.0,97,0.00,,,1.20,,2013-07-22 07:01:00,
2013-07-22 02:12:00,62.0,61.0,29.84,South,180,3.0,5.0,97,0.00,,,1.20,,2013-07-22 07:12:00,
2013-07-22 02:22:00,62.0,61.0,29.83,SE,137,1.0,3.0,97,0.00,,,1.20,,2013-07-22 07:22:00,
2013-07-22 02:33:00,62.0,61.0,29.84,South,173,1.0,4.0,97,0.00,,,1.20,,2013-07-22 07:33:00,
2013-07-22 02:43:00,62.0,61.0,29.85,South,177,1.0,4.0,97,0.00,,,1.20,,2013-07-22 07:43:00,
2013-07-22 02:52:00,62.0,61.0,29.84,South,177,0.0,1.0,97,0.00,,,1.20,,2013-07-22 07:52:00,
2013-07-22 03:02:00,62.0,61.0,29.85,South,177,0.0,2.0,97,0.00,,,1.20,,2013-07-22 08:02:00,
2013-07-22 03:11:00,62.0,61.0,29.85,South,177,0.0,1.0,97,0.00,,,1.20,,2013-07-22 08:11:00,
2013-07-22 03:22:00,62.0,61.0,29.85,South,177,0.0,1.0,97,0.00,,,1.20,,2013-07-22 08:22:00,
2013-07-22 03:32:00,62.0,61.0,29.84,South,170,0.0,2.0,97,0.00,,,1.20,,2013-07-22 08:32:00,
2013-07-22 03:43:00,62.0,61.0,29.84,South,181,0.0,3.0,97,0.00,,,1.20,,2013-07-22 08:43:00,
2013-07-22 03:52:00,62.0,61.0,29.83,SSE,166,1.0,5.0,97,0.00,,,1.20,,2013-07-22 08:52:00,
2013-07-22 04:02:00,62.0,61.0,29.82,South,177,1.0,4.0,97,0.00,,,1.20,,2013-07-22 09:02:00,
2013-07-22 04:11:00,61.0,60.0,29.82,SSE,151,0.0,6.0,97,0.00,,,1.20,,2013-07-22 09:11:00,
2013-07-22 04:22:00,61.0,60.0,29.81,ESE,111,0.0,4.0,97,0.00,,,1.19,,2013-07-22 09:22:00,
2013-07-22 04:33:00,61.0,60.0,29.81,SSE,161,0.0,3.0,97,0.00,,,1.19,,2013-07-22 09:33:00,
2013-07-22 04:42:00,61.0,60.0,29.80,SSE,167,2.0,6.0,97,0.00,,,1.19,,2013-07-22 09:42:00,
2013-07-22 04:52:00,61.0,60.0,29.80,SSE,150,1.0,5.0,97,0.01,,,1.20,,2013-07-22 09:52:00,
2013-07-22 05:02:00,61.0,60.0,29.80,South,174,1.0,4.0,97,0.01,,,1.20,,2013-07-22 10:02:00,
2013-07-22 05:11:00,61.0,60.0,29.80,SSE,155,1.0,4.0,97,0.01,,,1.20,,2013-07-22 10:11:00,
2013-07-22 05:22:00,61.0,60.0,29.80,SSE,158,1.0,5.0,98,0.01,,,1.20,,2013-07-22 10:22:00,
2013-07-22 05:32:00,61.0,60.0,29.81,SSE,148,2.0,5.0,97,0.01,,,1.20,,2013-07-22 10:32:00,
2013-07-22 05:43:00,61.0,60.0,29.81,SE,141,0.0,5.0,97,0.01,,,1.20,,2013-07-22 10:43:00,
2013-07-22 05:52:00,61.0,60.0,29.80,SE,144,1.0,5.0,97,0.00,,,1.20,,2013-07-22 10:52:00,
2013-07-22 06:02:00,61.0,60.0,29.80,SE,128,1.0,6.0,97,0.00,,,1.20,,2013-07-22 11:02:00,
2013-07-22 06:11:00,61.0,60.0,29.80,SSE,156,2.0,8.0,97,0.00,,,1.20,,2013-07-22 11:11:00,
2013-07-22 06:23:00,61.0,60.0,29.81,South,176,0.0,3.0,97,0.00,,,1.20,,2013-07-22 11:23:00,
2013-07-22 06:32:00,61.0,60.0,29.81,SSE,148,2.0,4.0,97,0.00,,,1.20,,2013-07-22 11:32:00,
2013-07-22 06:43:00,61.0,60.0,29.81,SE,138,2.0,5.0,98,0.00,,,1.20,,2013-07-22 11:43:00,
2013-07-22 06:52:00,61.0,60.0,29.82,SSE,163,0.0,5.0,98,0.00,,,1.20,,2013-07-22 11:52:00,
2013-07-22 07:02:00,61.0,60.0,29.82,South,175,2.0,5.0,98,0.00,,,1.20,,2013-07-22 12:02:00,
2013-07-22 07:11:00,61.0,60.0,29.82,South,175,2.0,6.0,98,0.00,,,1.20,,2013-07-22 12:11:00,
2013-07-22 07:22:00,61.0,60.0,29.82,SE,128,2.0,6.0,98,0.00,,,1.20,,2013-07-22 12:22:00,
2013-07-22 07:32:00,61.0,60.0,29.82,SSE,165,0.0,5.0,98,0.00,,,1.20,,2013-07-22 12:32:00,
2013-07-22 07:43:00,62.0,61.0,29.81,South,180,1.0,5.0,98,0.00,,,1.20,,2013-07-22 12:43:00,
2013-07-22 07:53:00,62.0,61.0,29.80,SE,136,1.0,4.0,98,0.00,,,1.20,,2013-07-22 12:53:00,
2013-07-22 08:01:00,62.0,61.0,29.80,South,190,2.0,5.0,98,0.00,,,1.20,,2013-07-22 13:01:00,
2013-07-22 08:11:00,62.0,61.0,29.80,South,191,1.0,5.0,98,0.00,,,1.20,,2013-07-22 13:11:00,
2013-07-22 08:22:00,62.0,61.0,29.79,SE,146,3.0,7.0,98,0.00,,,1.20,,2013-07-22 13:22:00,
2013-07-22 08:32:00,62.0,61.0,29.79,SSE,155,1.0,6.0,98,0.00,,,1.20,,2013-07-22 13:32:00,
2013-07-22 08:43:00,62.0,61.0,29.79,SE,140,2.0,7.0,98,0.00,,,1.20,,2013-07-22 13:43:00,
2013-07-22 08:53:00,63.0,62.0,29.78,South,178,3.0,6.0,98,0.00,,,1.20,,2013-07-22 13:53:00,
2013-07-22 09:01:00,63.0,62.0,29.78,SSW,202,2.0,5.0,98,0.00,,,1.20,,2013-07-22 14:01:00,
2013-07-22 09:11:00,63.0,62.0,29.78,SSE,163,2.0,4.0,98,0.00,,,1.20,,2013-07-22 14:11:00,
2013-07-22 09:22:00,63.0,62.0,29.78,ESE,103,2.0,6.0,98,0.00,,,0.58,,2013-07-22 14:22:00,
2013-07-22 09:32:00,64.0,63.0,29.78,SSE,148,1.0,7.0,98,0.00,,,0.58,,2013-07-22 14:32:00,
2013-07-22 09:43:00,64.0,63.0,29.78,SSE,153,3.0,6.0,98,0.00,,,0.58,,2013-07-22 14:43:00,
2013-07-22 09:53:00,64.0,63.0,29.78,South,183,2.0,7.0,97,0.00,,,0.58,,2013-07-22 14:53:00,
2013-07-22 10:02:00,65.0,64.0,29.78,SSW,197,1.0,6.0,97,0.00,,,0.58,,2013-07-22 15:02:00,
2013-07-22 10:11:00,65.0,64.0,29.78,SSE,152,3.0,6.0,96,0.00,,,0.58,,2013-07-22 15:11:00,
2013-07-22 10:22:00,66.0,65.0,29.78,SE,130,2.0,7.0,95,0.00,,,0.58,,2013-07-22 15:22:00,
2013-07-22 10:33:00,67.0,65.0,29.78,SE,142,2.0,6.0,93,0.00,,,0.58,,2013-07-22 15:33:00,
2013-07-22 10:43:00,67.0,64.0,29.77,SSE,162,2.0,6.0,91,0.00,,,0.58,,2013-07-22 15:43:00,
2013-07-22 10:52:00,68.0,66.0,29.77,SE,140,2.0,7.0,92,0.00,,,0.58,,2013-07-22 15:52:00,
2013-07-22 11:01:00,69.0,66.0,29.77,SSW,200,3.0,8.0,90,0.00,,,0.58,,2013-07-22 16:01:00,
2013-07-22 11:11:00,70.0,66.0,29.76,SSW,195,3.0,9.0,88,0.00,,,0.58,,2013-07-22 16:11:00,
2013-07-22 11:21:00,71.0,67.0,29.76,SE,142,2.0,7.0,87,0.00,,,0.58,,2013-07-22 16:21:00,
2013-07-22 11:32:00,72.0,67.0,29.75,SSE,165,5.0,9.0,84,0.00,,,0.58,,2013-07-22 16:32:00,
2013-07-22 11:43:00,73.0,68.0,29.75,SSW,209,4.0,8.0,83,0.00,,,0.58,,2013-07-22 16:43:00,
2013-07-22 11:52:00,74.0,68.0,29.75,SSW,209,3.0,9.0,81,0.00,,,0.58,,2013-07-22 16:52:00,
2013-07-22 12:01:00,75.0,68.0,29.75,SSE,157,4.0,8.0,79,0.00,,,0.58,,2013-07-22 17:01:00,
2013-07-22 12:11:00,76.0,69.0,29.74,SE,136,2.0,9.0,79,0.00,,,0.58,,2013-07-22 17:11:00,
2013-07-22 12:23:00,76.0,69.0,29.73,SSE,166,4.0,9.0,78,0.00,,,0.58,,2013-07-22 17:23:00,
2013-07-22 12:32:00,77.0,68.0,29.73,South,190,5.0,10.0,74,0.00,,,0.58,,2013-07-22 17:32:00,
2013-07-22 12:43:00,77.0,69.0,29.73,SSW,195,4.0,10.0,76,0.00,,,0.58,,2013-07-22 17:43:00,
2013-07-22 12:52:00,78.0,69.0,29.73,SSW,198,3.0,9.0,75,0.00,,,0.58,,2013-07-22 17:52:00,
2013-07-22 13:14:00,79.0,68.0,29.72,NW,309,5.0,9.0,70,0.00,,,0.58,,2013-07-22 18:14:00,
2013-07-22 13:26:00,79.0,69.0,29.72,South,180,3.0,10.0,72,0.00,,,0.10,,2013-07-22 18:26:00,
2013-07-22 13:49:00,79.0,69.0,29.69,South,169,4.0,11.0,72,0.00,,,0.10,,2013-07-22 18:49:00,
2013-07-22 13:55:00,79.0,69.0,29.70,SSE,153,4.0,11.0,72,0.00,,,0.10,,2013-07-22 18:55:00,
2013-07-22 14:05:00,80.0,70.0,29.69,South,181,4.0,9.0,71,0.00,,,0.10,,2013-07-22 19:05:00,
2013-07-22 14:15:00,81.0,70.0,29.69,SW,236,4.0,11.0,69,0.00,,,0.10,,2013-07-22 19:15:00,
2013-07-22 14:24:00,82.0,71.0,29.68,South,171,2.0,6.0,69,0.00,,,0.02,,2013-07-22 19:24:00,
2013-07-22 14:36:00,82.0,71.0,29.68,SE,136,3.0,12.0,70,0.00,,,0.02,,2013-07-22 19:36:00,
2013-07-22 14:45:00,83.0,71.0,29.68,SSW,206,4.0,9.0,68,0.00,,,0.02,,2013-07-22 19:45:00,
2013-07-22 14:55:00,83.0,71.0,29.68,SSW,199,4.0,11.0,68,0.00,,,0.02,,2013-07-22 19:55:00,
2013-07-22 15:04:00,83.0,71.0,29.67,SSW,213,4.0,10.0,67,0.00,,,0.02,,2013-07-22 20:04:00,
2013-07-22 15:16:00,83.0,70.0,29.67,SSE,156,6.0,12.0,65,0.00,,,0.02,,2013-07-22 20:16:00,
2013-07-22 15:22:00,83.0,70.0,29.67,SSE,152,5.0,13.0,66,0.00,,,0.01,,2013-07-22 20:22:00,
2013-07-22 15:32:00,83.0,71.0,29.67,WSW,248,3.0,12.0,68,0.00,,,0.01,,2013-07-22 20:32:00,
2013-07-22 15:43:00,83.0,71.0,29.67,SSW,207,5.0,14.0,68,0.00,,,0.01,,2013-07-22 20:43:00,
2013-07-22 15:52:00,84.0,71.0,29.67,SSW,202,5.0,12.0,66,0.00,,,0.01,,2013-07-22 20:52:00,
2013-07-22 16:01:00,83.0,71.0,29.66,South,171,6.0,11.0,68,0.00,,,0.01,,2013-07-22 21:01:00,
2013-07-22 16:12:00,84.0,71.0,29.66,South,175,6.0,15.0,65,0.00,,,0.01,,2013-07-22 21:12:00,
2013-07-22 16:22:00,83.0,72.0,29.66,West,273,1.0,10.0,69,0.00,,,0.01,,2013-07-22 21:22:00,
2013-07-22 16:32:00,83.0,71.0,29.65,South,176,3.0,9.0,68,0.00,,,0.01,,2013-07-22 21:32:00,
2013-07-22 16:43:00,83.0,70.0,29.65,South,190,5.0,10.0,65,0.00,,,0.01,,2013-07-22 21:43:00,
2013-07-22 16:52:00,82.0,69.0,29.66,SSW,202,3.0,10.0,66,0.00,,,0.01,,2013-07-22 21:52:00,
2013-07-22 17:01:00,82.0,70.0,29.65,South,178,2.0,8.0,68,0.00,,,0.01,,2013-07-22 22:01:00,
2013-07-22 17:11:00,81.0,70.0,29.65,SW,215,3.0,8.0,69,0.00,,,0.01,,2013-07-22 22:11:00,
2013-07-22 17:22:00,81.0,71.0,29.65,SSW,202,1.0,6.0,71,0.00,,,0.01,,2013-07-22 22:22:00,
2013-07-22 17:32:00,81.0,71.0,29.64,SSW,196,1.0,6.0,72,0.00,,,0.01,,2013-07-22 22:32:00,
2013-07-22 17:43:00,80.0,71.0,29.65,South,186,1.0,4.0,73,0.00,,,0.01,,2013-07-22 22:43:00,
2013-07-22 17:52:00,80.0,71.0,29.65,SSW,204,4.0,8.0,73,0.00,,,0.01,,2013-07-22 22:52:00,
2013-07-22 18:01:00,80.0,71.0,29.64,South,169,3.0,9.0,74,0.00,,,0.01,,2013-07-22 23:01:00,
2013-07-22 18:11:00,79.0,70.0,29.65,South,186,2.0,8.0,75,0.00,,,0.01,,2013-07-22 23:11:00,
2013-07-22 18:22:00,79.0,70.0,29.66,SW,234,4.0,8.0,75,0.00,,,0.01,,2013-07-22 23:22:00,
2013-07-22 18:32:00,79.0,71.0,29.66,South,175,4.0,7.0,76,0.00,,,0.01,,2013-07-22 23:32:00,
2013-07-22 18:42:00,79.0,71.0,29.65,SSW,206,5.0,9.0,77,0.00,,,0.01,,2013-07-22 23:42:00,
2013-07-22 18:52:00,79.0,71.0,29.64,South,179,3.0,8.0,77,0.00,,,0.01,,2013-07-22 23:52:00,
2013-07-22 19:01:00,80.0,72.0,29.64,West,271,0.0,5.0,77,0.00,,,0.01,,2013-07-23 00:01:00,
2013-07-22 19:12:00,80.0,72.0,29.64,WSW,246,2.0,9.0,76,0.00,,,0.01,,2013-07-23 00:12:00,
2013-07-22 19:22:00,81.0,72.0,29.64,West,271,5.0,12.0,75,0.00,,,0.01,,2013-07-23 00:22:00,
2013-07-22 19:32:00,79.0,72.0,29.62,NW,319,1.0,11.0,79,0.00,,,0.01,,2013-07-23 00:32:00,
2013-07-22 19:43:00,78.0,71.0,29.63,WNW,290,4.0,10.0,79,0.00,,,0.01,,2013-07-23 00:43:00,
2013-07-22 19:52:00,78.0,71.0,29.63,WSW,248,3.0,9.0,79,0.00,,,0.01,,2013-07-23 00:52:00,
2013-07-22 20:01:00,77.0,70.0,29.64,WSW,246,5.0,7.0,80,0.00,,,0.01,,2013-07-23 01:01:00,
2013-07-22 20:11:00,77.0,70.0,29.65,WNW,282,3.0,10.0,79,0.00,,,0.01,,2013-07-23 01:11:00,
2013-07-22 20:22:00,77.0,70.0,29.65,West,270,3.0,7.0,80,0.00,,,0.01,,2013-07-23 01:22:00,
2013-07-22 20:32:00,77.0,71.0,29.64,WSW,252,2.0,5.0,81,0.00,,,0.01,,2013-07-23 01:32:00,
2013-07-22 20:43:00,76.0,70.0,29.64,WSW,242,2.0,5.0,81,0.00,,,0.01,,2013-07-23 01:43:00,
2013-07-22 20:53:00,76.0,69.0,29.64,WNW,286,3.0,7.0,80,0.00,,,0.01,,2013-07-23 01:53:00,
2013-07-22 21:02:00,76.0,69.0,29.65,WNW,283,4.0,7.0,79,0.00,,,0.01,,2013-07-23 02:02:00,
2013-07-22 21:11:00,76.0,69.0,29.65,West,275,0.0,9.0,80,0.00,,,0.01,,2013-07-23 02:11:00,
2013-07-22 21:22:00,75.0,68.0,29.65,West,279,2.0,5.0,80,0.00,,,0.01,,2013-07-23 02:22:00,
2013-07-22 21:33:00,75.0,69.0,29.66,WNW,284,1.0,6.0,81,0.00,,,0.01,,2013-07-23 02:33:00,
2013-07-22 21:43:00,75.0,69.0,29.67,WNW,284,0.0,2.0,82,0.00,,,0.01,,2013-07-23 02:43:00,
2013-07-22 21:53:00,74.0,68.0,29.67,WNW,284,0.0,2.0,82,0.00,,,0.01,,2013-07-23 02:53:00,
2013-07-22 22:01:00,74.0,68.0,29.67,WNW,284,0.0,1.0,83,0.00,,,0.01,,2013-07-23 03:01:00,
2013-07-22 22:11:00,73.0,68.0,29.68,WNW,284,0.0,0.0,84,0.00,,,0.01,,2013-07-23 03:11:00,
2013-07-22 22:22:00,73.0,69.0,29.69,WNW,284,0.0,0.0,86,0.00,,,0.01,,2013-07-23 03:22:00,
2013-07-22 22:33:00,72.0,67.0,29.69,WNW,284,0.0,1.0,85,0.00,,,0.01,,2013-07-23 03:33:00,
2013-07-22 22:43:00,73.0,68.0,29.69,WNW,301,3.0,6.0,83,0.00,,,0.01,,2013-07-23 03:43:00,
2013-07-22 22:52:00,74.0,67.0,29.70,North,350,4.0,12.0,79,0.00,,,0.01,,2013-07-23 03:52:00,
2013-07-22 23:01:00,73.0,65.0,29.70,NNE,26,5.0,13.0,77,0.00,,,0.01,,2013-07-23 04:01:00,
2013-07-22 23:11:00,72.0,64.0,29.71,NNW,331,7.0,16.0,75,0.00,,,0.01,,2013-07-23 04:11:00,
2013-07-22 23:22:00,72.0,63.0,29.71,WNW,298,5.0,13.0,74,0.00,,,0.01,,2013-07-23 04:22:00,
2013-07-22 23:32:00,71.0,62.0,29.72,NNW,328,7.0,15.0,73,0.00,,,0.01,,2013-07-23 04:32:00,
2013-07-22 23:43:00,70.0,61.0,29.73,NW,316,7.0,15.0,73,0.00,,,0.01,,2013-07-23 04:43:00,
2013-07-22 23:53:00,70.0,61.0,29.74,North,350,7.0,14.0,74,0.00,,,0.01,,2013-07-23 04:53:00,